Location: Elk Horn Observatory
(36.6768°N, 80.8309°W)
Time: 11:40:21
(UTC-04:00)

ISS - Pass Details

Date: 25 September 2018
Orbit: 403 x 408 km, 51.6° (Epoch: 21 October)

Event Time Altitude Azimuth Distance (km) Brightness Sun altitude
Rises 21:08:31 0° 284° (WNW) 2,332 1.5 -23.2°
Reaches altitude 10° 21:12:04 10° 325° (NW) 1,473 -0.3 -23.9°
Maximum altitude 21:12:56 11° 340° (NNW) 1,427 -0.6 -24.0°
Drops below altitude 10° 21:13:48 10° 355° (N) 1,473 -0.7 -24.2°
Enters shadow 21:14:04 10° 360° (N) 1,504 -0.8 -24.3°
